Lapse_Rate
5.3 5.3 5.4 5.4 5.5 5.7 5.7 5.8 5.9 6.1 6.1 6.2 6.3 6.4 6.5 6.6 6.7 6.8 6.9 7.1 7.1 7.1 7.2 7.1 7.1 7.1 7.1 7.1 6.2 6.6 7.6 6.5 7.0 8.4 7.9 9.0 9.7 9.7 9.5 8.6 8.7 8.5 7.9 8.1 7.9
5.2 5.2 5.3 5.3 5.5 5.6 5.8 5.9 6.0 6.1 6.1 6.2 6.2 6.5 6.4 6.5 6.7 6.9 6.8 7.0 7.1 7.1 7.1 7.2 7.3 7.2 7.1 6.5 6.7 7.3 9.0 8.0 7.9 6.6 6.3 8.9 9.5 9.7 9.7 9.3 8.9 8.5 8.3 8.6 8.4
5.3 5.4 5.4 5.5 5.7 5.8 6.0 6.2 6.2 6.2 6.3 6.4 6.4 6.5 6.5 6.6 6.7 6.6 6.9 7.0 7.0 7.0 7.1 7.1 6.6 6.1 6.4 6.8 7.2 7.6 9.1 9.1 8.2 7.3 9.2 9.1 9.4 9.4 9.7 9.7 9.0 7.5 8.1 8.7 8.5
5.5 5.5 5.6 5.8 6.0 6.2 6.3 6.3 6.4 6.4 6.5 6.4 6.5 6.5 6.5 6.5 6.6 6.2 6.4 6.8 6.9 7.0 7.0 7.0 6.3 6.4 6.8 6.9 7.3 7.4 8.0 8.7 8.6 8.5 9.0 9.4 9.4 9.5 9.2 9.7 9.8 8.9 7.5 8.8 8.5
5.6 5.7 5.9 6.1 6.2 6.3 6.4 6.4 6.5 6.6 6.6 6.6 6.7 6.5 6.5 6.6 6.7 6.6 6.8 6.8 6.9 6.9 7.0 6.7 6.1 6.4 6.8 7.2 7.4 7.6 7.7 7.9 8.0 8.1 8.2 8.4 8.8 9.4 9.3 9.2 9.7 9.3 8.2 8.9 8.5
5.8 6.0 6.1 6.2 6.4 6.4 6.5 6.6 6.7 6.7 6.7 6.7 6.8 6.6 6.6 6.6 5.9 7.0 7.0 6.7 6.7 6.8 6.9 6.5 6.2 6.5 6.8 7.0 7.2 7.5 7.4 7.5 7.6 7.8 7.9 8.2 8.4 8.8 9.4 9.7 9.7 9.5 8.8 8.4 8.2
5.9 6.0 6.1 6.1 6.3 6.5 6.7 6.7 6.8 6.8 6.7 6.8 6.7 6.6 6.6 6.4 6.4 6.5 6.9 7.0 6.7 6.9 6.6 6.1 6.2 6.4 6.8 6.8 6.9 7.0 7.1 7.3 7.5 8.0 8.2 8.8 8.4 8.7 9.2 9.7 9.7 9.4 8.9 8.4 8.0
6.0 6.1 6.1 6.2 6.4 6.5 6.7 6.8 6.9 6.9 6.9 6.9 6.8 6.7 6.4 6.8 6.7 6.8 6.6 6.3 6.9 6.6 5.7 6.0 6.2 6.3 6.4 6.6 6.6 6.7 7.0 7.0 7.6 8.0 8.9 9.7 9.4 9.3 9.7 9.7 9.8 9.3 8.8 8.8 8.3
6.1 6.2 6.2 6.2 6.4 6.6 6.7 6.8 6.9 6.9 6.9 6.9 6.7 6.6 5.7 6.6 6.4 6.5 6.7 6.3 5.6 5.6 5.6 5.7 5.7 5.9 6.2 6.4 6.5 6.9 7.1 7.4 7.6 8.7 9.6 9.7 9.7 9.7 9.7 9.7 9.8 9.3 9.6 9.3 8.9
6.1 6.2 6.2 6.3 6.4 6.5 6.5 6.7 6.7 6.7 6.6 6.6 6.4 6.5 6.1 5.8 6.0 6.4 6.5 6.4 5.9 5.8 5.9 5.8 5.8 5.9 6.2 6.4 6.6 7.2 7.7 8.2 8.7 9.3 9.6 9.7 9.7 9.7 9.7 9.6 9.7 9.7 9.7 9.6 9.5
5.9 6.0 6.0 6.1 6.2 6.4 6.6 6.6 6.6 6.6 6.4 6.4 5.6 5.8 5.7 6.0 6.4 6.4 6.4 6.5 6.1 5.9 6.1 6.2 6.1 6.4 6.6 6.8 7.1 7.3 7.4 7.7 7.9 8.2 8.9 8.9 9.4 9.6 9.6 9.7 9.7 9.7 10.0 9.7 9.7
5.6 5.8 5.9 6.0 6.2 6.4 6.5 6.6 6.5 6.3 6.5 6.5 6.1 6.2 6.1 6.3 6.2 6.1 6.3 6.2 6.1 6.2 6.4 6.6 6.8 7.0 7.1 7.3 7.3 7.5 7.6 7.6 7.9 8.4 8.8 8.7 8.6 9.2 9.7 9.7 9.7 9.6 9.7 9.7 9.7
5.6 5.8 5.9 6.0 6.2 6.3 6.4 6.4 6.4 6.3 6.4 5.9 5.8 6.0 6.1 6.3 6.4 6.7 6.4 6.5 6.7 6.8 7.1 7.2 7.4 7.8 8.1 7.9 7.9 7.8 7.8 8.0 8.0 8.0 8.2 8.7 8.3 9.2 9.6 9.7 9.7 9.6 9.6 9.7 9.3
5.6 5.8 5.9 6.1 6.2 6.2 6.4 6.3 6.4 6.4 6.5 6.4 6.1 6.2 6.2 6.3 6.6 6.7 6.5 6.5 6.7 7.1 7.4 7.5 7.7 7.8 7.9 7.8 7.8 7.8 8.8 8.3 8.1 8.2 8.1 9.4 9.4 9.4 9.7 9.7 9.7 9.7 9.6 9.6 9.7
5.6 5.7 5.9 6.1 6.0 6.1 6.2 6.4 6.5 6.5 7.5 6.9 6.6 6.6 6.6 6.7 7.0 6.7 6.5 6.5 6.7 7.1 7.4 7.7 7.8 8.0 8.1 7.9 7.9 7.9 8.1 8.2 8.2 8.4 8.5 8.5 9.7 9.7 9.4 9.5 9.2 9.4 9.7 9.8 9.7
5.5 5.7 5.8 5.9 6.1 6.3 6.3 6.4 6.5 6.2 7.7 7.1 7.1 7.0 7.0 7.0 7.1 6.9 6.6 6.5 6.8 6.9 7.2 7.3 7.5 7.7 7.9 7.6 7.8 7.9 8.0 8.2 8.7 9.2 9.7 9.5 9.0 9.4 8.9 9.3 8.7 8.4 9.3 9.2 9.7
5.8 5.8 5.9 6.0 6.1 6.3 6.3 6.5 6.1 7.3 7.6 7.7 7.5 7.3 7.6 7.9 7.9 7.5 7.3 7.5 7.5 7.3 7.7 8.2 8.9 9.6 9.1 8.3 8.3 8.6 9.3 9.6 9.7 9.7 9.7 9.5 9.5 9.5 9.4 9.0 8.7 8.5 8.7 9.3 9.5
5.8 5.8 5.9 6.1 6.2 6.3 6.3 5.9 6.6 8.3 8.0 7.3 7.2 7.4 7.4 7.7 7.7 7.6 7.4 7.8 8.2 7.1 7.4 8.3 9.5 9.5 9.6 8.7 9.1 8.7 9.3 9.6 9.3 9.6 9.8 9.6 9.6 9.5 9.3 9.1 8.9 9.3 8.7 9.3 9.3
5.7 5.8 6.1 6.3 6.2 6.2 6.1 6.0 7.4 7.4 6.9 7.0 7.0 7.4 7.8 7.7 7.1 7.6 7.7 8.0 8.9 7.5 7.4 7.7 8.1 8.3 8.7 9.2 9.6 9.4 9.7 9.7 9.7 9.7 9.7 9.6 9.1 9.2 8.9 8.8 9.0 8.5 8.1 9.0 9.4
5.9 5.7 5.6 5.9 5.9 6.0 5.5 6.2 6.8 6.8 6.6 6.6 7.0 7.5 7.7 8.9 7.8 8.1 8.4 8.6 8.1 7.5 7.0 7.4 7.5 7.9 8.3 8.7 9.7 9.7 9.7 9.7 9.7 9.5 9.4 9.6 8.6 9.5 8.8 8.9 8.9 8.9 8.9 8.7 8.0
5.5 5.6 4.9 5.3 5.6 5.7 5.5 6.5 7.0 6.7 6.2 6.6 7.0 7.3 7.4 7.6 7.7 7.8 8.4 9.0 7.9 7.2 7.0 7.5 7.7 7.8 8.2 8.6 9.6 9.5 9.4 9.4 8.9 8.6 8.9 9.5 9.2 7.9 8.1 7.8 8.1 8.2 7.8 8.2 7.7
5.5 5.4 4.8 5.2 5.2 5.6 6.0 6.7 6.6 6.7 6.4 6.3 6.6 6.7 7.1 7.4 7.3 7.6 8.2 8.9 7.1 6.8 7.1 7.3 7.3 7.5 7.7 8.0 9.1 9.6 8.9 8.5 8.5 7.9 8.5 8.2 8.3 7.7 8.6 7.3 7.5 7.3 7.1 6.1 6.4
5.5 5.6 4.9 5.2 5.3 6.3 6.7 6.9 6.3 6.5 6.7 6.6 6.7 6.9 7.0 7.0 7.1 7.2 7.7 8.0 7.5 7.2 7.0 6.7 7.1 7.1 7.7 8.8 9.0 8.7 8.8 8.4 8.5 8.2 8.4 7.8 8.3 8.3 8.5 8.1 8.0 7.7 7.3 6.8 7.2
5.4 5.3 5.7 5.1 5.4 5.5 6.0 6.5 6.8 6.5 6.3 6.7 6.7 6.8 7.0 6.9 7.1 7.1 7.4 7.7 7.6 7.5 6.9 6.7 6.9 7.0 7.5 7.8 8.5 8.6 9.0 9.2 8.9 8.7 8.7 8.6 8.8 8.6 8.0 8.3 7.2 7.7 7.4 7.6 7.7
5.3 5.3 5.5 5.9 6.2 5.6 6.2 6.4 6.6 7.0 6.8 6.4 6.7 6.8 7.1 7.1 7.2 7.2 7.5 7.7 7.8 7.5 7.0 6.9 7.1 7.3 7.3 7.7 7.9 8.1 8.3 8.8 9.5 9.1 9.3 8.7 8.8 8.2 7.9 7.6 6.3 7.4 6.8 6.4 7.1
5.3 4.8 5.1 5.3 5.5 5.6 5.8 5.9 6.2 6.6 7.0 7.5 6.7 7.0 7.4 7.4 6.9 7.1 7.2 7.2 7.2 7.0 6.9 6.9 7.0 7.1 7.0 7.4 7.9 8.2 8.7 9.2 9.4 9.5 9.6 9.1 7.8 6.5 6.8 7.0 6.6 7.7 6.2 6.9 7.5
4.6 4.5 4.8 5.3 5.6 6.1 6.4 6.4 6.6 6.6 6.8 7.1 7.1 7.2 7.3 7.3 6.4 6.4 6.7 6.7 6.7 6.8 7.0 7.1 7.1 7.2 7.1 7.5 7.8 7.7 8.6 9.4 8.9 8.7 8.4 8.2 7.4 6.8 6.8 7.0 6.8 6.6 6.6 6.5 6.9
Wind_Speed
23 23 23 23 23 23 23 23 23 22 21 21 19 18 18 17 17 6 10 5 7 20 6 9 15 17 17 18 19 20 15 9 6 15 24 14 9 9 9 14 7 3 15 23 25
23 23 24 25 25 24 23 23 23 22 22 21 20 19 17 15 10 18 10 13 19 18 11 14 15 16 14 18 15 15 15 15 22 24 15 21 9 9 8 17 14 10 18 24 27
23 24 24 25 26 25 25 24 24 23 22 21 20 19 16 15 11 2 5 9 16 19 17 18 16 14 18 18 20 22 17 20 20 39 17 14 10 8 13 6 26 17 10 22 22
23 24 25 26 27 26 26 25 25 24 22 20 20 18 14 6 5 6 8 8 10 14 16 18 16 17 17 18 21 21 22 20 18 20 22 20 16 12 12 14 15 29 31 23 21
23 24 25 26 27 27 27 26 25 25 23 21 17 13 7 8 13 10 8 7 9 13 15 17 16 16 18 17 20 22 21 20 19 19 19 19 19 16 14 12 4 31 32 24 20
25 25 26 27 28 28 27 26 25 24 24 19 12 7 5 12 4 14 9 8 10 13 15 17 15 15 20 19 21 21 23 23 22 22 21 21 22 19 18 15 4 9 22 21 19
26 27 28 29 30 30 31 31 28 24 22 13 7 5 11 15 1 3 7 10 13 16 16 13 15 17 18 18 20 22 23 20 20 21 22 21 21 22 21 18 14 14 11 18 18
25 27 28 29 30 32 32 31 29 23 17 10 6 7 7 2 10 6 10 12 12 16 14 18 15 17 19 19 20 23 25 21 22 23 23 20 19 20 20 17 12 5 15 15 19
26 27 28 29 33 34 33 32 28 20 11 4 6 9 8 3 6 8 10 11 10 11 11 9 12 15 16 16 18 19 21 24 24 22 22 20 19 17 15 14 10 25 13 14 17
27 28 29 32 36 36 36 34 10 8 6 8 11 9 8 2 2 4 5 7 10 14 15 13 12 13 15 15 16 20 20 21 23 21 23 18 19 18 13 19 19 11 11 11 13
28 30 31 34 38 36 18 6 3 5 13 12 4 10 1 4 4 8 8 7 8 9 13 14 12 14 18 20 22 23 25 26 23 22 23 24 24 19 17 15 17 16 13 14 15
30 31 33 35 37 37 12 9 9 6 10 16 8 8 6 3 5 7 6 7 12 11 13 13 16 21 21 17 18 20 23 24 25 22 21 22 24 24 22 20 18 20 17 15 16
27 29 33 37 39 15 5 8 7 9 6 11 11 8 2 6 9 7 9 12 11 13 14 15 17 16 16 13 17 19 17 20 21 20 21 22 25 22 24 22 20 23 20 15 17
27 27 29 39 9 10 4 10 9 5 5 9 8 7 6 7 9 6 5 7 11 13 11 10 14 10 11 15 16 20 18 18 18 18 18 19 18 16 19 20 22 23 24 23 19
28 27 29 20 10 6 10 10 10 5 5 7 10 6 3 6 6 12 1 7 13 14 13 15 17 14 14 14 14 18 17 17 18 19 20 22 14 14 16 15 15 24 26 17 18
31 27 28 2 6 10 12 11 7 5 3 6 2 6 13 14 10 4 9 10 12 13 14 17 16 16 15 8 13 13 15 15 18 17 14 17 3 9 12 14 15 18 19 29 18
34 35 16 12 5 14 10 8 6 6 3 4 0 3 8 8 9 8 9 10 6 6 13 16 14 12 2 10 13 14 14 12 13 12 13 12 7 11 11 16 8 11 22 27 20
36 40 8 8 11 13 9 8 6 9 3 6 8 10 13 14 4 13 6 13 8 5 11 11 4 10 5 9 10 14 13 8 17 14 18 17 9 10 12 4 10 13 21 20 17
38 7 6 8 12 5 7 7 7 11 7 9 13 13 15 7 4 7 11 13 5 8 6 10 15 21 15 21 7 16 15 18 13 17 15 10 10 17 11 5 2 14 20 20 29
11 10 12 10 5 6 6 10 15 5 8 11 12 7 12 8 3 11 4 2 2 2 7 12 17 18 20 19 15 19 14 15 12 14 17 8 9 5 10 14 12 15 15 16 26
4 6 7 9 5 6 9 14 13 5 2 7 11 11 11 10 9 10 9 6 7 5 10 15 15 15 14 15 15 10 11 10 7 8 9 15 6 12 20 21 24 23 24 23 18
7 6 8 4 7 7 11 15 5 7 6 7 8 11 13 12 8 12 12 2 8 5 10 13 12 13 18 21 21 11 5 8 3 6 9 10 8 14 15 19 13 16 19 11 19
5 10 6 4 6 10 14 18 6 11 13 10 9 8 9 7 7 9 9 9 8 6 6 7 7 12 13 16 8 9 18 2 7 7 9 9 14 5 8 11 11 10 13 19 18
5 5 7 7 10 14 15 14 12 11 10 13 12 13 12 9 13 11 14 10 8 8 7 5 13 16 13 18 21 19 19 15 11 11 13 15 14 9 15 19 11 13 13 3 4
4 5 10 7 9 12 11 13 15 15 11 8 10 12 14 13 14 12 15 15 13 11 7 10 14 15 18 21 21 22 23 25 20 22 19 20 4 7 3 6 8 16 25 3 5
5 7 10 12 14 14 12 15 16 16 16 13 9 14 14 10 8 14 15 12 11 15 14 13 14 15 20 21 22 24 24 21 22 23 21 12 15 7 3 5 6 10 16 3 6
8 7 7 9 13 13 11 13 15 12 13 15 11 14 12 7 11 14 14 14 16 18 17 15 12 13 18 20 20 18 21 18 13 18 10 11 8 12 8 5 6 3 5 7 6
Wind_Direction
351 349 347 343 342 341 338 336 332 330 328 326 322 320 316 318 300 235 263 269 177 172 212 207 219 239 246 258 259 261 273 77 343 326 336 327 13 57 148 141 134 105 127 149 146
347 345 343 340 339 336 334 331 327 325 324 321 318 318 317 324 286 269 251 136 147 163 206 198 214 227 246 264 261 257 272 170 162 241 285 295 31 317 323 139 139 119 122 145 153
342 340 338 337 335 332 329 327 323 323 320 316 315 314 318 314 280 224 125 145 166 176 224 217 235 228 252 265 271 276 268 295 198 201 232 325 332 352 321 2 120 138 272 159 164
339 337 335 333 330 327 324 321 320 319 315 311 310 310 316 259 289 92 166 175 186 200 230 239 240 251 253 268 273 273 277 274 293 305 313 316 314 320 294 320 130 138 242 163 171
336 332 331 327 324 322 319 315 318 316 311 307 304 307 287 228 258 135 155 161 174 204 220 236 236 247 263 269 278 284 289 296 296 296 296 296 294 299 287 292 23 160 199 161 172
331 328 327 324 322 319 315 317 317 313 307 303 292 286 239 253 102 141 172 174 182 205 229 246 246 254 269 280 283 298 302 299 297 294 293 291 290 284 281 269 262 138 151 161 172
332 329 325 325 324 322 320 321 317 312 304 301 259 235 250 243 191 286 217 200 235 205 245 247 260 265 277 269 281 280 280 289 284 280 273 265 264 259 263 264 262 158 178 161 173
331 330 328 324 321 319 319 317 311 308 299 306 204 213 254 36 327 272 253 205 215 243 244 270 271 267 274 286 288 283 282 281 277 274 274 274 257 262 255 251 251 326 172 175 178
333 333 331 328 321 318 317 310 300 291 276 258 210 225 253 144 214 219 225 252 244 215 265 280 285 270 279 269 271 264 265 267 272 269 271 277 277 259 255 257 194 219 188 185 186
339 336 332 326 321 321 322 298 274 302 222 232 260 249 247 243 34 279 246 245 243 247 236 235 244 257 253 250 261 276 282 290 296 302 304 279 263 267 247 265 268 247 217 217 223
339 336 331 324 321 320 333 317 259 192 231 278 269 263 189 303 224 211 225 196 255 251 256 221 233 242 245 254 261 268 273 275 276 285 286 292 296 294 291 256 247 255 251 222 245
338 334 325 322 317 313 295 21 36 329 298 292 250 254 248 297 259 200 175 225 201 241 244 240 247 245 252 260 270 281 281 282 283 278 281 278 277 282 280 268 262 263 265 260 265
329 327 323 319 315 294 346 20 328 328 264 257 212 260 242 223 271 158 186 238 257 266 251 256 272 290 284 276 277 274 274 289 289 289 276 280 278 274 271 266 262 270 266 254 246
324 323 325 326 303 336 43 355 340 343 278 159 202 229 212 233 249 221 265 283 279 263 294 298 289 299 305 285 277 279 282 282 294 299 291 297 291 272 269 262 250 242 241 239 237
324 327 327 324 312 330 343 324 329 269 291 176 136 101 274 245 343 187 146 275 261 285 296 278 302 300 288 296 308 299 304 302 295 286 284 281 273 283 328 306 322 335 316 222 248
325 327 337 143 230 272 326 321 282 238 241 145 174 218 216 212 218 255 199 212 266 282 271 262 259 255 252 278 293 301 295 286 268 259 260 269 311 304 298 288 331 308 314 290 246
323 316 317 302 300 337 319 285 258 249 158 132 243 269 276 286 232 209 290 245 267 267 301 324 264 247 322 304 279 252 262 272 285 292 293 347 279 299 235 267 298 285 291 303 278
322 311 266 234 295 292 300 273 263 298 309 87 294 277 275 275 251 253 259 269 183 213 315 310 349 26 21 280 281 298 306 290 291 304 310 317 308 310 332 164 240 264 301 284 308
319 300 244 228 221 285 279 253 274 354 17 344 317 266 270 176 240 296 250 269 352 34 329 317 303 329 307 292 259 279 268 277 288 281 286 331 340 303 330 291 194 290 301 333 352
323 295 257 143 206 255 263 257 299 321 340 302 287 290 304 313 200 288 270 32 1 125 336 310 298 299 300 287 264 259 285 290 285 299 289 268 256 266 5 2 319 333 353 354 349
269 275 117 157 204 246 253 272 307 359 345 295 290 302 282 289 311 299 299 312 71 2 335 300 291 308 308 280 305 322 273 308 337 327 307 312 21 39 15 5 58 42 19 16 43
285 274 124 206 253 244 254 252 340 287 245 260 273 280 287 297 301 287 284 314 95 358 303 314 318 300 297 294 293 325 42 359 299 285 306 302 293 34 32 17 352 98 72 288 230
280 284 249 212 259 254 268 251 242 271 267 265 255 255 287 287 290 270 288 332 354 330 5 350 318 312 300 283 64 337 304 208 239 260 285 300 274 41 63 20 343 302 179 210 254
280 288 204 199 252 278 290 291 293 227 251 296 297 297 297 273 274 264 267 262 289 275 134 307 276 268 275 295 313 307 295 270 270 271 279 243 252 27 16 346 346 324 285 295 39
249 269 352 296 300 338 321 306 299 297 197 234 275 256 265 276 288 296 291 288 290 147 316 302 288 281 288 295 302 297 290 285 267 246 248 267 317 115 169 272 295 13 329 351 93
293 341 339 305 297 281 275 271 277 278 276 275 235 258 286 293 279 288 299 310 312 319 307 291 290 298 290 285 283 281 287 278 280 281 291 359 71 231 266 229 256 192 234 27 75
297 327 280 284 287 285 268 275 276 262 280 283 298 291 298 337 356 324 311 298 285 277 275 274 277 288 284 290 291 283 277 285 327 327 350 329 12 99 281 257 283 350 342 64 79